Flag for Bahrain Weather past 2 weeks in Riffa, Bahrain

Now
68 °F

Passing clouds.


Feels Like: 68 °F
Forecast: 63 / 76 °F
Wind: 5 mph from Northwest

Location: Bahrain International Airport

Current Time: Feb 28, 2015 at 10:38:42 AM

Latest Report: Feb 28, 2015 at 10:00 AM


Visibility: N/A

Pressure: 30.07 "Hg

Humidity: 73%

Dew point: 59 °F

Location of RiffaLocation

Historic Weather in Riffa — Graph

°F

Riffa temperature yesterday

Maximum temperature yesterday: 68 °F (at 2:00 PM)
Minimum temperature yesterday: 63 °F (at 5:00 AM)
Average temperature yesterday: 65 °F

Past Weeks' High & Low Weather Summary

 TemperatureHumidityPressure
High86 °F (Feb 20, 4:00 PM)94% (Feb 18, 5:00 AM)30.18 "Hg (Feb 18, 5:00 AM)
Low55 °F (Feb 23, 4:00 AM)29% (Feb 17, 2:00 PM)29.53 "Hg (Feb 20, 2:00 PM)
Average67 °F67%29.95 "Hg
* Reported Feb 13 9:30 AM — Feb 28 9:00 AM, Riffa, Weather by CustomWeather, © 2015

Note: Actual official high and low records may vary slightly from our data, if they occured in-between our weather recording intervals... More about our weather records

Advertising

Riffa weather history for previous 24 hours

 ConditionsComfort  
Time TempWeatherWind HumidityBarometerVisibility
9:00 AM
Sat, Feb 28
64 °FPassing clouds.6 mph83%30.09 "Hg5 mi
8:00 AM63 °FScattered clouds.6 mph88%30.09 "Hg3 mi
7:00 AM63 °FScattered clouds.5 mph88%30.07 "Hg3 mi
6:00 AM63 °FClear.2 mph88%30.04 "Hg4 mi
5:00 AM63 °FClear.5 mph88%30.01 "Hg5 mi
4:00 AM61 °FClear.5 mph88%30.01 "Hg5 mi
3:00 AM61 °FClear.6 mph88%30.01 "Hg5 mi
2:00 AM63 °FClear.6 mph83%30.01 "Hg5 mi
1:00 AM63 °FClear.7 mph83%30.01 "Hg5 mi
12:00 AM63 °FClear.7 mph83%30.04 "Hg5 mi
11:00 PM
Fri, Feb 27
63 °FClear.7 mph88%30.04 "Hg5 mi
10:00 PM63 °FClear.7 mph88%30.04 "Hg5 mi
9:00 PM64 °FClear.9 mph83%30.04 "Hg5 mi
8:00 PM64 °FClear.10 mph83%30.04 "Hg6 mi
7:00 PM64 °FClear.13 mph78%30.01 "Hg10 mi
6:00 PM66 °FClear.14 mph73%30.01 "Hg10 mi
5:00 PM66 °FSunny.20 mph73%29.98 "Hg10 mi
4:00 PM68 °FSunny.21 mph69%29.98 "Hg10 mi
3:00 PM66 °FPassing clouds.24 mph73%29.98 "HgN/A
2:00 PM68 °FPassing clouds.23 mph64%29.98 "HgN/A
1:00 PM66 °FPassing clouds.24 mph68%29.98 "HgN/A
12:00 PM66 °FScattered clouds.25 mph64%29.98 "HgN/A
11:00 AM66 °FPassing clouds.25 mph64%30.01 "HgN/A
10:00 AM64 °FPassing clouds.22 mph64%30.04 "HgN/A
Weather by CustomWeather, © 2015

See weather overviewHow to use our weather pages